Weather Roundup
Issued by NWS

Home | Current Version | Previous Version | Text Only | Print | Product List | Glossary On
Versions: 1 2 3 4 5 6 7 8 9 10 11 12 13 14 15 16 17 18 19 20 21 22 23 24 25 26 27 28 29 30 31 32 33 34 35 36 37 38 39 40 41 42 43 44 45 46 47 48 49 50
079
NZUS93 KARX 061510
HRRWXR

CURRENT HOURLY OBSERVATIONS ACROSS
MUCH OF THE UPPER MISSISSIPPI VALLEY
NATIONAL WEATHER SERVICE LA CROSSE WI
900 AM CST TUE DEC 06 2016


...SOUTHEAST MINNESOTA...


CITY           SKY/WX    TMP DP  RH WIND       PRES   REMARKS
ROCHESTER      PTSUNNY   22  18  85 W17       29.75R WCI   8
ROCHESTER/MAYO FAIR      24  18  78 W17G26    29.75S WCI  10
WINONA         CLOUDY    32  27  80 W7G21     29.77R WCI  26
AUSTIN         PTSUNNY   21  16  79 W16G23    29.79R WCI   7
ALBERT LEA     MOSUNNY   23  16  74 W10G25    29.79S WCI  12
DODGE CENTER   PTSUNNY   21  18  86 W22G28    29.75S WCI   5
PRESTON        PTSUNNY   23  18  81 W15       29.76S WCI  10
OWATONNA       CLOUDY    21  14  73 W20       29.77S WCI   6
FARIBAULT      CLOUDY    21  14  73 SW16G22   29.77F WCI   7
$$

...ELSEWHERE IN MINNESOTA...


CITY           SKY/WX    TMP DP  RH WIND       PRES   REMARKS
MINNEAPOLIS    CLOUDY    21  11  65 W14G25    29.74R WCI   8
INTNL FALLS    CLOUDY    25  19  78 S8        29.44R WCI  16
DULUTH         CLOUDY    24  18  77 SW18G31   29.54R WCI  10
RED WING       PTSUNNY   27  18  69 W18G26    29.74S WCI  13
REDWOOD FALLS  PTCLDY    19   8  62 W20G35    29.75S WCI   3
MANKATO        FLURRIES  19  12  74 W23G32    29.78S WCI   2
WORTHINGTON    FLURRIES  16   9  74 W25G37    29.80F WCI  -3
FAIRMONT       FLURRIES  19  12  74 W24G30    29.81F WCI   2
$$

...SOUTHWEST WISCONSIN...


CITY           SKY/WX    TMP DP  RH WIND       PRES   REMARKS
LA CROSSE      CLOUDY    33  29  85 W8        29.75S WCI  26
PRAIRIE DU CHI LGT SNOW  33  31  92 W8        29.78R WCI  26
BOSCOBEL       LGT SNOW  35  32  88 SW5       29.77S FOG     WCI  31
LONE ROCK      CLOUDY    33  32  96 CALM      29.77F FOG
PLATTEVILLE    CLOUDY    32  32 100 S7        29.77S VSB 1/2 WCI  26
FORT MC COY    LGT SNOW  32  31  97 CALM      29.73S VSB 1
CAMP DOUGLAS   LGT SNOW  32  30  93 S6        29.72F FOG     WCI  26
MAUSTON-NEW LI CLOUDY    32  31  98 S7        29.72F FOG     WCI  26
VIROQUA        CLOUDY    32  32 100 SW9       29.73R VSB 1   WCI  24
WIS DELLS      CLOUDY    32  31  97 S7        29.74F FOG     WCI  25
$$

...ELSEWHERE IN WISCONSIN...


CITY           SKY/WX    TMP DP  RH WIND       PRES   REMARKS
MILWAUKEE      PTSUNNY   41  35  79 SE6       29.78F
MADISON        CLOUDY    32  30  92 S10       29.76F FOG     WCI  24
GREEN BAY      CLOUDY    37  36  96 S6        29.77F WCI  32
EAU CLAIRE     LGT SNOW  29  26  89 W13       29.69S FOG     WCI  19
BLACK RVR FLS  LGT SNOW  32  32 100 SW3       29.72R VSB 3/4
MEDFORD        LGT SNOW  29  28  95 S12       29.65F VSB 1   WCI  20
WAUSAU         CLOUDY    30  29  96 S10       29.69F FOG     WCI  21
WIS RAPIDS     CLOUDY    32  30  92 S6        29.72F WCI  26
MARSHFIELD     LGT SNOW  30  28  92 S10       29.67F VSB 3/4 WCI  21
RICE LAKE      CLOUDY    28  22  79 SW14G22   29.68R WCI  16
$$

...NORTHEAST IOWA...


CITY           SKY/WX    TMP DP  RH WIND       PRES   REMARKS
WATERLOO       MOSUNNY   27  19  72 W18G24    29.85R WCI  14
DUBUQUE        FOG       32  32 100 SW7       29.77R VSB 1/2 WCI  26
DECORAH        CLOUDY    28  25  86 W9G22     29.77R WCI  20
MASON CITY     MOSUNNY   20  14  77 W29G35    29.84R WCI   1
CHARLES CITY   MOSUNNY   23  16  74 W23G33    29.82R WCI   7
OELWEIN        CLOUDY    28  23  80 W20G26    29.82R WCI  15
$$

...ELSEWHERE IN IOWA...


CITY           SKY/WX    TMP DP  RH WIND       PRES   REMARKS
DES MOINES     MOSUNNY   28  17  63 NW18      29.93R WCI  15
IOWA CITY      CLOUDY    35  29  78 NW13      29.85R WCI  26
FORT DODGE     SUNNY     21  12  68 W17G24    29.90R WCI   7
MARSHALLTOWN   SUNNY     27  20  75 W18G26    29.87R WCI  14
CEDAR RAPIDS   CLOUDY    31  28  89 NW20      29.83R WCI  19
$$

...NORTHERN ILLINOIS...


CITY           SKY/WX    TMP DP  RH WIND       PRES   REMARKS
CHICAGO-OHARE  CLOUDY    31  29  92 CALM      29.77R FOG
CHICAGO-MIDWAY CLOUDY    32  30  92 W3        29.77S FOG
MOLINE         FOG       34  33  96 SW3       29.81R VSB 3/4
ROCKFORD       DRZL/FOG  33  33 100 CALM      29.81F VSB 1/8
PEORIA         CLOUDY    33  33 100 NW5       29.82R FOG     WCI  29
$$

NOTE: "FAIR" INDICATES FEW OR NO CLOUDS BELOW 12,000 FEET WITH NO
SIGNIFICANT WEATHER AND/OR OBSTRUCTIONS TO VISIBILITY. WIND
SPEEDS ARE IN MILES-PER-HOUR.




USA.gov is the U.S. government's official web portal to all federal, state and local government web resources and services.